Location: *
(33.8649°S, 62.1526°E)
Time: 13:12:08
(UTC+00:00)

ERBS - Pass Details

Date: 17 January 2021
Orbit: 405 x 418 km, 57.0° (Epoch: 02 March)

Event Time Altitude Azimuth Distance (km) Brightness Sun altitude
Rises 17:04:03 0° 306° (NW) 2,369 6.2 -21.1°
Reaches altitude 10° 17:06:12 10° 298° (WNW) 1,513 5.2 -21.4°
Maximum altitude 17:09:24 39° 227° (SW) 665 3.7 -21.8°
Drops below altitude 10° 17:12:42 10° 156° (SSE) 1,556 5.4 -22.3°
Sets 17:14:51 0° 148° (SSE) 2,408 6.3 -22.6°
